M/V Oriole — WDE6982 — position and weather

sailwx.info

Track history (hours):
 
Tides and Currents Weather Stations Pressure Air Temp Water Temp Dewpoint Dewpoint Depression Visibility Wind Speed Wind Dir Waves Ship Positions

M/V Oriole

Owner: NATIVE SON INC., ST. THOMAS, VI. More information available from US FCC via Universal Licensing System and Coast Guard Vessel Documentation Center.

Last reported at 2016-May-27 19:13 UTC. Time now 2016-May-28 02:04 UTC.
Position N 18°23' W 064°39'.

Length 25 m.

Type: Passenger vessel. MMSI: 366755670.

Date/timePositionNaut miles runAvg speedWind from/ knotsBaromVisibWave heightAir tempDewpointWater temp
2016-May-27 19:13N 18°23' W 064°39'1014.5
2016-May-27 18:33N 18°20' W 064°48'1 1.0
2016-May-27 17:16N 18°20' W 064°50'5 7.2
2016-May-27 16:33N 18°22' W 064°45'5 0.3
2016-May-26 20:18N 18°23' W 064°40'6 7.5
2016-May-26 19:33N 18°22' W 064°45'4 2.0
2016-May-26 17:20N 18°20' W 064°49'7 9.3
2016-May-26 16:33N 18°23' W 064°42'8 2.5
2016-May-26 13:27N 18°20' W 064°50'8 8.4
2016-May-26 12:31N 18°23' W 064°42'6 6.2
2016-May-26 11:33N 18°20' W 064°48'6 6.1
2016-May-26 10:33N 18°23' W 064°42'3 0.3
2016-May-25 22:16N 18°23' W 064°39'9 5.1
2016-May-25 20:28N 18°20' W 064°48'4 4.6
2016-May-25 19:33N 18°23' W 064°44'1 0.3
2016-May-25 16:32N 18°23' W 064°43'7 2.1
2016-May-25 13:11N 18°20' W 064°50'811.1
2016-May-25 12:26N 18°23' W 064°42'7 7.4
2016-May-25 11:33N 18°20' W 064°48'7 6.5
2016-May-25 10:33N 18°23' W 064°42'2 0.1
2016-May-24 21:33N 18°23' W 064°44'5 4.4
2016-May-24 20:29N 18°20' W 064°48'3 3.7
2016-May-24 19:32N 18°23' W 064°45'3 0.9
2016-May-24 16:31N 18°23' W 064°42'8 2.5
2016-May-24 13:22N 18°20' W 064°50'8 9.9
2016-May-24 12:32N 18°23' W 064°42'6 6.3
2016-May-24 11:34N 18°20' W 064°48'8 0.6
2016-May-23 22:15N 18°23' W 064°39'8 4.8
2016-May-23 20:30N 18°20' W 064°48'3 3.2
2016-May-23 19:31N 18°22' W 064°46'5 2.0
2016-May-23 17:12N 18°20' W 064°50'8 9.4
2016-May-23 16:22N 18°23' W 064°42'7 2.3
2016-May-23 13:16N 18°20' W 064°49'7 9.5
2016-May-23 12:33N 18°23' W 064°42'6 4.6
2016-May-23 11:11N 18°20' W 064°48'10 0.8
2016-May-22 22:12N 18°24' W 064°38'1015.3
2016-May-22 21:31N 18°21' W 064°48'1 1.1
2016-May-22 20:28N 18°20' W 064°48'4 4.1
2016-May-22 19:33N 18°23' W 064°45'4 1.7
2016-May-22 17:24N 18°20' W 064°48'6 6.3
2016-May-22 16:26N 18°23' W 064°42'7 2.1
2016-May-22 13:10N 18°20' W 064°48'710.4
2016-May-22 12:32N 18°23' W 064°42'7 7.4
2016-May-22 11:31N 18°20' W 064°49'10 0.4
2016-May-21 10:24N 18°23' W 064°40'  
2016-May-18 14:17N 18°20' W 064°49'  
Track history (hours):
 
Tides and Currents Weather Stations Pressure Air Temp Water Temp Dewpoint Dewpoint Depression Visibility Wind Speed Wind Dir Waves Ship Positions

M/V Oriole

Owner: NATIVE SON INC., ST. THOMAS, VI. More information available from US FCC via Universal Licensing System and Coast Guard Vessel Documentation Center.

Last reported at 2016-May-27 19:13 UTC. Time now 2016-May-28 02:04 UTC.
Position N 18°23' W 064°39'.

Length 25 m.

Type: Passenger vessel. MMSI: 366755670.

Date/timePositionNaut miles runAvg speedWind from/ knotsBaromVisibWave heightAir tempDewpointWater temp
2016-May-27 19:13N 18°23' W 064°39'1014.5
2016-May-27 18:33N 18°20' W 064°48'1 1.0
2016-May-27 17:16N 18°20' W 064°50'5 7.2
2016-May-27 16:33N 18°22' W 064°45'5 0.3
2016-May-26 20:18N 18°23' W 064°40'6 7.5
2016-May-26 19:33N 18°22' W 064°45'4 2.0
2016-May-26 17:20N 18°20' W 064°49'7 9.3
2016-May-26 16:33N 18°23' W 064°42'8 2.5
2016-May-26 13:27N 18°20' W 064°50'8 8.4
2016-May-26 12:31N 18°23' W 064°42'6 6.2
2016-May-26 11:33N 18°20' W 064°48'6 6.1
2016-May-26 10:33N 18°23' W 064°42'3 0.3
2016-May-25 22:16N 18°23' W 064°39'9 5.1
2016-May-25 20:28N 18°20' W 064°48'4 4.6
2016-May-25 19:33N 18°23' W 064°44'1 0.3
2016-May-25 16:32N 18°23' W 064°43'7 2.1
2016-May-25 13:11N 18°20' W 064°50'811.1
2016-May-25 12:26N 18°23' W 064°42'7 7.4
2016-May-25 11:33N 18°20' W 064°48'7 6.5
2016-May-25 10:33N 18°23' W 064°42'2 0.1
2016-May-24 21:33N 18°23' W 064°44'5 4.4
2016-May-24 20:29N 18°20' W 064°48'3 3.7
2016-May-24 19:32N 18°23' W 064°45'3 0.9
2016-May-24 16:31N 18°23' W 064°42'8 2.5
2016-May-24 13:22N 18°20' W 064°50'8 9.9
2016-May-24 12:32N 18°23' W 064°42'6 6.3
2016-May-24 11:34N 18°20' W 064°48'8 0.6
2016-May-23 22:15N 18°23' W 064°39'8 4.8
2016-May-23 20:30N 18°20' W 064°48'3 3.2
2016-May-23 19:31N 18°22' W 064°46'5 2.0
2016-May-23 17:12N 18°20' W 064°50'8 9.4
2016-May-23 16:22N 18°23' W 064°42'7 2.3
2016-May-23 13:16N 18°20' W 064°49'7 9.5
2016-May-23 12:33N 18°23' W 064°42'6 4.6
2016-May-23 11:11N 18°20' W 064°48'10 0.8
2016-May-22 22:12N 18°24' W 064°38'1015.3
2016-May-22 21:31N 18°21' W 064°48'1 1.1
2016-May-22 20:28N 18°20' W 064°48'4 4.1
2016-May-22 19:33N 18°23' W 064°45'4 1.7
2016-May-22 17:24N 18°20' W 064°48'6 6.3
2016-May-22 16:26N 18°23' W 064°42'7 2.1
2016-May-22 13:10N 18°20' W 064°48'710.4
2016-May-22 12:32N 18°23' W 064°42'7 7.4
2016-May-22 11:31N 18°20' W 064°49'10 0.4
2016-May-21 10:24N 18°23' W 064°40'  
2016-May-18 14:17N 18°20' W 064°49'  

Dump ship's entire track history